#timestamp,LO_Frequency,Hit,StdDev 
1509364815.9,286046996.8,N
1509364835.7,286046999.0,N
1509364855.5,286046996.5,N
1509364875.4,286046997.8,N
1509364895.2,286046999.5,N
1509364915.0,286046995.2,N
1509364915.9,286046995.2,N
1509364935.8,286046993.7,Y
1509364955.6,286046999.5,P
1509364975.5,286046995.1,P
1509364995.3,286046994.9,N
1509365015.1,286046995.7,N
1509365035.9,286046994.5,Y
1509365055.7,286046999.1,P
1509365075.5,286046997.0,N
1509365095.4,286046996.0,P
1509365115.2,286046993.7,Y
1509365135.0,286047004.4,P
1509365135.9,286047004.4,N
1509365155.8,286046998.3,N
1509365175.6,286046991.9,N
1509365195.5,286046989.2,N
1509365215.3,286046988.1,N
1509365235.1,286046994.4,N
1509365255.9,286046990.5,N
1509365275.7,286046989.9,N
1509365295.5,286046987.9,N
1509365315.4,286046988.3,N
1509365335.2,286046987.9,N
1509365355.0,286046987.6,N
1509365355.9,286046987.6,N
1509365375.8,286046989.7,N
1509365395.6,286046989.5,N
1509365415.4,286046991.4,N
1509365435.3,286046990.3,N
1509365455.1,286046990.4,N
1509365475.8,286046988.5,N
1509365495.7,286046991.3,N
1509365515.5,286046991.1,N
1509365535.3,286046990.2,N
1509365555.2,286046992.5,N
1509365575.0,286046993.2,N
1509365575.9,286046993.2,N
1509365595.7,286046991.1,N
1509365615.6,286046990.3,N
1509365635.4,286046991.1,N
1509365655.3,286046988.6,N
1509365675.1,286046985.4,Y
1509365676.0,286046985.4,P
1509365695.8,286046996.2,N
1509365715.7,286046996.5,N
1509365735.5,286046995.1,N
1509365755.3,286046999.0,N
1509365775.2,286046998.7,N
1509365795.9,286047000.2,N
1509365815.7,286047002.8,N
1509365835.6,286047002.2,N
1509365855.4,286047001.1,N
1509365875.2,286047004.7,N
1509365895.1,286047006.0,N
1509365896.0,286047006.0,N
1509365915.8,286047005.3,N
1509365935.6,286047007.5,N
1509365955.5,286047004.6,N
1509365975.3,286047006.7,N
1509365995.1,286047004.9,N
1509366015.9,286047005.3,N
1509366035.7,286047006.8,N
1509366055.5,286047004.9,N
1509366075.4,286047008.9,N
1509366095.2,286047008.6,N
1509366115.1,286047009.2,N
1509366116.0,286047009.2,N
1509366135.8,286047007.5,N
1509366155.6,286047009.0,N
1509366175.5,286047007.3,N
1509366195.3,286047006.9,N
1509366215.1,286047009.1,N
1509366235.9,286047006.2,N
1509366255.7,286047007.8,N
1509366275.5,286047008.3,N
1509366295.4,286047011.5,Y
1509366315.2,286047004.6,P
1509366335.0,286047006.5,P
1509366336.0,286047006.5,P
1509366355.8,286047006.9,Y
1509366375.6,286046998.8,P
1509366395.5,286047001.0,N
1509366415.3,286047002.6,N
1509366435.1,286046998.9,N
1509366455.9,286046998.4,N
1509366475.7,286046997.3,N
1509366495.5,286046998.8,N
1509366515.4,286047001.1,N
1509366535.2,286047003.4,N
1509366555.0,286047007.1,N
1509366555.9,286047007.1,N
1509366575.8,286047003.6,N
1509366595.6,286046999.7,N
1509366615.4,286046998.3,N
1509366635.3,286046996.5,N
1509366655.1,286046995.2,N
1509366675.8,286046995.6,N
1509366695.7,286046993.2,N
1509366715.5,286046989.1,N
1509366735.3,286046989.5,N
1509366755.2,286046984.6,Y
1509366775.0,286046992.3,P
1509366775.9,286046992.3,N
1509366795.8,286046991.2,N
1509366815.6,286046990.9,N
1509366835.4,286046989.8,Y
1509366855.3,286046998.6,P
1509366875.1,286046998.6,N
1509366895.8,286047000.6,N
1509366915.7,286046999.1,N
1509366935.5,286046996.9,N
1509366955.3,286046998.2,N
1509366975.2,286047004.4,N
1509366995.0,286047005.2,N
1509366995.9,286047005.2,N
1509367015.7,286047006.8,N
1509367035.6,286047006.7,N
1509367055.4,286047003.0,N
1509367075.2,286047004.9,N
1509367095.1,286047006.3,N
1509367096.0,286047006.3,N
1509367115.8,286047006.1,N
1509367135.7,286047008.6,N
1509367155.5,286047009.9,N
1509367175.3,286047014.7,Y
1509367195.2,286047010.2,P
1509367215.9,286047012.2,P
1509367235.7,286047012.1,P
1509367255.6,286047014.4,Y
1509367275.4,286047003.7,P
1509367295.2,286047003.9,N
1509367315.1,286047006.0,N
1509367316.0,286047006.0,N
1509367335.8,286047006.7,Y
1509367355.7,286047002.4,P
1509367375.5,286047001.5,N
1509367395.3,286047001.5,N
1509367415.2,286047003.8,N
1509367435.9,286047001.4,N
1509367455.7,286047004.1,N
1509367475.6,286047001.2,N
1509367495.4,286046998.8,N
1509367515.2,286046997.0,N
1509367535.1,286046999.6,N
1509367536.0,286046999.6,N
1509367555.8,286046999.2,N
1509367575.6,286046998.9,N
1509367595.5,286046999.6,N
1509367615.3,286046993.4,N
1509367635.1,286046994.9,N
1509367655.9,286046993.3,N
1509367675.7,286046992.0,N
1509367695.5,286046991.2,N
1509367715.4,286046984.2,Y
1509367735.2,286046988.0,P
1509367755.1,286046986.0,N
1509367756.0,286046986.0,N
1509367775.8,286046986.7,N
1509367795.6,286046988.0,N
1509367815.5,286046989.9,N
1509367835.3,286046991.5,N
1509367855.1,286046990.0,N
1509367875.9,286046988.8,N
1509367895.7,286046985.5,Y
1509367915.5,286046997.1,P
1509367935.4,286046993.6,N
1509367955.2,286046997.3,N
1509367975.0,286046998.3,N
1509367975.9,286046998.3,N
1509367995.8,286047000.8,N
1509368015.6,286046999.8,N
1509368035.4,286047003.4,N
1509368055.3,286047002.7,N
1509368075.1,286047000.6,N
1509368095.8,286046996.9,N
1509368115.7,286046997.9,N
1509368135.5,286046997.8,N
1509368155.3,286046996.8,N
1509368175.2,286046996.2,N
1509368195.0,286046995.8,N
1509368195.9,286046995.8,N
1509368215.7,286046994.9,N
1509368235.6,286046995.1,N
1509368255.4,286046999.1,N
1509368275.3,286047000.8,N
1509368295.1,286046997.3,N
1509368296.0,286046997.3,N
1509368315.8,286046996.4,N
1509368335.7,286046996.0,N
1509368355.5,286046994.0,N
1509368375.3,286046994.5,N
1509368395.2,286046993.6,N
